Location: Arbon
(43.0005°N, 0.7472°E)
Time: 09:19:48
(UTC+00:00)

Vanguard 2 Rocket - Pass Details

Date: 03 December 2020
Orbit: 554 x 3326 km, 32.9° (Epoch: 28 January)

Event Time Altitude Azimuth Distance (km) Brightness Sun altitude
Rises 13:32:27 0° 279° (W) 6,951 11.6 20.4°
Reaches altitude 10° 13:39:34 10° 264° (W) 5,495 11.4 19.8°
Maximum altitude 13:48:26 18° 229° (SW) 4,111 12.0 19.1°
Drops below altitude 10° 13:55:15 10° 192° (SSW) 4,031 11.8 18.4°
Sets 13:59:19 0° 173° (S) 4,546 11.3 18.0°
